Regional Weather Roundup
Issued by NWS Mobile, AL

Home | Current Version | Previous Version | Text Only | Print | Product List | Glossary On
Versions: 1 2 3 4 5 6 7 8 9 10 11 12 13 14 15 16 17 18 19 20 21 22 23 24 25 26 27 28 29 30 31 32 33 34 35 36 37 38 39 40 41 42 43 44 45 46 47 48 49 50
163
ASUS44 KMOB 300212
RWRMOB
REGIONAL WEATHER ROUNDUP
NATIONAL WEATHER SERVICE MOBILE AL
900 PM CDT WED MAR 29 2017

NOTE: "FAIR" INDICATES FEW OR NO CLOUDS BELOW 12,000 FEET WITH NO
      SIGNIFICANT WEATHER AND/OR OBSTRUCTIONS TO VISIBILITY.

  * THESE STATIONS ARE PART OF THE UNIVERSITY OF SOUTH ALABAMA
    MESONET AND ARE NOT UNDER NWS OR FAA QUALITY CONTROL.

ALZ061>064-300300-
COASTAL ALABAMA

CITY           SKY/WX    TMP DP  RH WIND       PRES   REMARKS
MOBILE REG APT MOCLDY    71  66  84 SE9       29.97S
BROOKLEY FIELD MOCLDY    73  68  84 SE14      29.97S
USA CAMPUS*      N/A     72  66  83 SE7       29.96S
DOG RIVER*       N/A     72  68  88 SE6       30.70S


CITY           SKY/WX    TMP DP  RH WIND       PRES   REMARKS
GULF SHORES    PTCLDY    70  70 100 SE13      29.97S

$$

ALZ051>060-300300-
INTERIOR SOUTHWEST AND SOUTH CENTRAL ALABAMA

CITY           SKY/WX    TMP DP  RH WIND       PRES   REMARKS
GREENVILLE     CLEAR     72  54  53 S8        29.97R
EVERGREEN      CLEAR     70  61  73 S8        29.97S
ATMORE*          N/A     68  68 100 S7        29.99S
ANDALUSIA/OPP  CLEAR     71  57  61 S3        29.99R
ANDALUSIA*     NOT AVBL
FLORALA APT    CLEAR     66  58  75 S5        30.01R
FLORALA*         N/A     64  59  82 CALM      30.70S

$$

FLZ001>006-300300-
WESTERN FLORIDA PANHANDLE

CITY           SKY/WX    TMP DP  RH WIND       PRES   REMARKS
PENSACOLA      CLOUDY    72  67  84 SE13      29.97F
NAS PENSACOLA  MOCLDY    72  66  81 SE13      29.96F
MILTON         CLOUDY    66  65  96 SE6       29.98S
WHTNG S FIELD  CLOUDY    70  66  87 SE6       29.98F


CITY           SKY/WX    TMP DP  RH WIND       PRES   REMARKS
JAY*             N/A     68  63  83 SE9       29.97F
DUKE FIELD     PTCLDY    67  64  90 S6        29.98S
CRESTVIEW      PTCLDY    68  62  81 CALM      30.00S
VALPARAISO     PTCLDY    70  67  90 S7        29.99S
DESTIN         CLOUDY    73  71  93 SE7       29.99S

$$

MSZ076-079-300300-
INTERIOR SOUTHEAST MISSISSIPPI

CITY           SKY/WX    TMP DP  RH WIND       PRES   REMARKS
LEAKESVILLE*     N/A     70  64  83 S5        29.94R
AGRICOLA*        N/A     68  66  94 S2        29.94S

$$

MARINE OBSERVATIONS

STATION/POSITION TIME  TEMP    WIND        PRES    WAVE
                       AIR SEA DIR/SP/G            HT/PER
                 (UTC) (F)     (DEG/KT/KT) (MB)    (FT/S)
PASCAGOULA       0148   73     130/ 10/ 17 1013.9S
PETIT BOIS ISLND 0130   72     130/ 15/ 18 1014.7F
GRAND BAY        0045   73     140/ 15     1015.0S
KATRINA CUT      0100          140/ 17     1013.5
CEDAR POINT      0130   72     140/ 16     1014.2F
E DAUPHIN ISLAND 0100   72     130/ 18/ 20 1014.0F
MIDDLE BAY LIGHT 0100   73     130/ 17     1014.2
USCG MOBILE BAY  0148   72 74  140/  8/ 12 1015.1F
STATE DOCKS      0130   72 69              1014.4F
MEAHER PARK      0130   72     130/  8     1014.9R
WEEKS BAY        0045   70                   N/A
FORT MORGAN      0130   72     140/ 18/ 22   N/A
12 S ORANGE BCH  0050   72 72  120/ 12/ 16 1014.5F   3/ 6
PENSACOLA BAY    0148   72 75  160/  5/ 10 1015.2F
64 S DAUPHIN ISL 0120   73 73  120/ 16/ 19 1014.0
67 S FORT MORGAN 0030   72     120/ 17     1014.2S

$$

SELECTED LOCATIONS ACROSS THE REGION

CITY           SKY/WX    TMP DP  RH WIND       PRES   REMARKS
NEW ORLEANS    CLOUDY    74  69  85 SE13      29.88S
GULFPORT       MOCLDY    74  70  87 SE20      29.92R
PASCAGOULA AP  MOCLDY    72  66  81 SE9       29.95S
PASCAGOULA*    NOT AVBL
HATTIESBURG    CLOUDY    72  64  76 S10       29.92R
LAUREL         PTCLDY    72  63  73 SE9       29.91F
MERIDIAN       PTCLDY    74  61  63 S10       29.90R
JACKSON        MOCLDY    75  62  64 S12       29.85S
MONTGOMERY     CLEAR     74  56  53 S5        29.96R
TROY           CLEAR     72  55  55 S7        29.99R
ASHFORD*       NOT AVBL
DOTHAN         CLEAR     72  55  55 SW8       30.02R
PANAMA CITY    CLOUDY    64  59  83 CALM      30.00R

$$





USA.gov is the U.S. government's official web portal to all federal, state and local government web resources and services.